User: anonymous   Login
Location: Caltech
(34.1382°N, 118.1253°W)
Time: 13:15:29
(UTC-07:00)
Language:

BREEZE M DEB (TANK) - Orbit

View from above orbital plane
View from above orbital plane
View from above satellite
View from above satellite

Ground track
Ground track

The orbit data is extracted from the following two-line orbital elements,

1 33437U 08057B   18114.63142812 +.00000222 +00000-0 +63711-4 0  9990
2 33437 049.6044 339.2875 4981319 302.3458 018.8657 05.60847931191319
Epoch (UTC): 24 April 2018 15:09:15
Eccentricity: 0.4981319
inclination: 49.6044°
perigee height: 337 km
apogee height: 13669 km
right ascension of ascending node: 339.2875°
argument of perigee: 302.3458°
revolutions per day: 5.60847931
mean anomaly at epoch: 18.8657°
orbit number at epoch: 19131

The dashed part of the orbit path shows where the satellite is in the earth's shadow,  

DLR